Aeroporto :
LOGIN :

Iscrizione | Disclaimer

   EN    FR    IT 

 










Sommario :    VFR   VFR Marginale   IFR   IFR Intensivo   IFR Molto Intensivo
Visibilità : 
Base nubi : 
>= 8 km
>= 3000ft
5 / 8 km
1000 / 3000 ft
1500m / 5 km
500 / 1000 ft
800 / 1500m
200 / 500 ft
< 800m
< 200 ft
Simboli :   Temporali  Nebbia  Neve Forte  Precipitazioni Forti  Vento > 20 kt
SIGMETs :   Varie  Temporali  Ghiacco  Turbolenza  Onda orograficha  Ceneri Vulcaniche







- Altitudine del aeroporto : 755 ft
- Codice IATA : DRS


EDDC - Dresden Klotzsche

ULTIMO METAR :
  • 201250Z 06008KT 030V100 CAVOK 03/M05 Q1016 NOSIG

METARs OBSOLETI :
  • 201220Z 06009KT CAVOK 03/M05 Q1017 NOSIG
  • 201150Z 06006KT 030V100 CAVOK 03/M04 Q1017 NOSIG
  • 201120Z 10006KT 070V140 CAVOK 03/M05 Q1017 NOSIG
  • 201050Z 08006KT 050V110 CAVOK 02/M05 Q1017 NOSIG
  • 201020Z 06006KT 030V090 CAVOK 02/M05 Q1017 NOSIG

TAF TAF EDDC
Valido dal 20 a 12 ore il 21 a 12 ore UTC


201100Z 2012/2112 07007KT CAVOK
BECMG 2020/2022 01006KT
BECMG 2104/2106 4500 BR
BECMG 2106/2108 9000
Nessun NOTAM noto per questo aeroporto.



MetMap, La meteo Aeronautica in un colpo d'occhio ! - Copyright ORBIFLY Dicembre 2007 - Disclaimer

ORBIFLY MET'MAP TEAM :

Programmazione e sviluppo : Alexandra Zaïnal
Concezione e sviluppo : Baudouin d'Aumeries
Co-Programmazione e sviluppo : Marc-Olivier Méhu
Supporto tecnico e logistico : Manuel Goepfert
Aiuto per la traduzione : Arnaldo La Scala

Contatto : metmap@orbifly.com




FONTI E CREDITI :

   NOAA